Weather History for Staples, MN

Change the Weather History Date:

Saturday, September 14, 2013

  Actual Average Record
Temperature  
Mean Temperature 55 °F -  
Max Temperature 64 °F 68 °F 82 °F (2006)
Min Temperature 46 °F 47 °F 28 °F (2011)
Degree Days  
Heating Degree Days 10    
Growing Degree Days 5 (Base 50)    
Moisture  
Dew Point 49 °F    
Average Humidity 86    
Maximum Humidity 100    
Minimum Humidity 59    
Precipitation  
Precipitation 1.41 in - - ()
Sea Level Pressure  
Sea Level Pressure 29.96 in    
Wind  
Wind Speed 6 mph (South)    
Max Wind Speed 13 mph    
Max Gust Speed 17 mph    
Visibility 9 miles    
Events Rain    
Averages and records for this station are not official NWS values.
T = Trace of Precipitation, MM = Missing Value Source: NWS Daily Summary

Daily Weather History Graph

Daily Weather History Graph

Search for Another Location

Airport:

Trip Planner

Search our weather history database for the weather conditions in past years. The results will help you decide how hot, cold, wet, or windy it might be!

Date:

Astronomy

Sep. 14, 2013 Rise Set
Actual Time 6:56 AM CDT 7:32 PM CDT
Civil Twilight 6:25 AM CDT 8:02 PM CDT
Nautical Twilight 5:49 AM CDT 8:38 PM CDT
Astronomical Twilight 5:12 AM CDT 9:15 PM CDT
Moon 4:27 PM CDT (9/14) 1:14 AM CDT (9/14)
Length of Visible Light 13h 36m
Length of Day
12h 35m
Waxing Gibbous, 72% of the Moon is Illuminated
Sep 14
Waxing Gibbous
Sep 19
Full
Sep 26
Last Quarter
Oct 4
New
Oct 11
First Quarter

Hourly Weather History & Observations

Time (CDT) Temp. Windchill Dew Point Humidity Pressure Visibility Wind Dir Wind Speed Gust Speed Precip Events Conditions
12:14 AM 48.2 °F - 44.6 °F 87% 30.04 in 10.0 mi South 4.6 mph - N/A   Clear
12:33 AM 48.2 °F - 44.6 °F 87% 30.04 in 10.0 mi South 6.9 mph - N/A   Clear
12:53 AM 48.2 °F - 44.6 °F 87% 30.03 in 10.0 mi SSE 6.9 mph - N/A   Clear
1:14 AM 50.0 °F - 44.6 °F 82% 30.03 in 10.0 mi South 6.9 mph - N/A   Clear
1:33 AM 48.2 °F - 44.6 °F 87% 30.03 in 10.0 mi South 5.8 mph - N/A   Clear
1:53 AM 48.2 °F - 44.6 °F 87% 30.03 in 10.0 mi South 8.1 mph - N/A   Clear
2:14 AM 50.0 °F - 44.6 °F 82% 30.02 in 10.0 mi South 8.1 mph - N/A   Clear
2:33 AM 50.0 °F - 44.6 °F 82% 30.01 in 10.0 mi South 9.2 mph - N/A   Clear
2:53 AM 50.0 °F - 44.6 °F 82% 30.01 in 10.0 mi South 9.2 mph - N/A   Clear
3:13 AM 48.2 °F - 44.6 °F 87% 30.01 in 10.0 mi South 8.1 mph - N/A   Clear
3:33 AM 48.2 °F - 44.6 °F 87% 30.01 in 10.0 mi South 6.9 mph - N/A   Clear
3:54 AM 48.2 °F - 44.6 °F 87% 30.01 in 10.0 mi South 5.8 mph - N/A   Clear
4:13 AM 48.2 °F - 44.6 °F 87% 30.00 in 10.0 mi South 5.8 mph - N/A   Clear
4:33 AM 46.4 °F 44.3 °F 44.6 °F 93% 30.00 in 10.0 mi South 4.6 mph - N/A   Clear
4:54 AM 46.4 °F 44.3 °F 44.6 °F 93% 30.00 in 10.0 mi South 4.6 mph - N/A   Clear
5:13 AM 46.4 °F 45.2 °F 44.6 °F 93% 30.00 in 10.0 mi SSE 3.5 mph - N/A   Clear
5:33 AM 46.4 °F 43.5 °F 44.6 °F 93% 29.99 in 10.0 mi South 5.8 mph - N/A   Clear
5:54 AM 46.4 °F 44.3 °F 44.6 °F 93% 29.99 in 10.0 mi South 4.6 mph - N/A   Clear
6:13 AM 46.4 °F 44.3 °F 44.6 °F 93% 29.98 in 10.0 mi South 4.6 mph - N/A   Clear
6:33 AM 46.4 °F 43.5 °F 44.6 °F 93% 29.98 in 10.0 mi South 5.8 mph - N/A   Clear
6:54 AM 46.4 °F 44.3 °F 44.6 °F 93% 29.98 in 10.0 mi South 4.6 mph - N/A   Clear
7:13 AM 48.2 °F - 44.6 °F 87% 29.98 in 10.0 mi South 6.9 mph - N/A   Clear
7:33 AM 48.2 °F - 44.6 °F 87% 29.98 in 10.0 mi South 5.8 mph - N/A   Clear
7:54 AM 48.2 °F - 44.6 °F 87% 29.98 in 10.0 mi South 6.9 mph - N/A   Clear
8:13 AM 51.8 °F - 46.4 °F 82% 29.97 in 10.0 mi South 8.1 mph - N/A   Clear
8:33 AM 53.6 °F - 46.4 °F 77% 29.97 in 10.0 mi South 8.1 mph - N/A   Clear
8:54 AM 55.4 °F - 46.4 °F 72% 29.96 in 10.0 mi South 5.8 mph - N/A   Clear
9:13 AM 57.2 °F - 48.2 °F 72% 29.96 in 10.0 mi South 8.1 mph - N/A   Clear
9:33 AM 59.0 °F - 48.2 °F 67% 29.96 in 10.0 mi SSW 10.4 mph - N/A   Clear
9:54 AM 60.8 °F - 48.2 °F 63% 29.96 in 10.0 mi South 10.4 mph - N/A   Clear
10:13 AM 62.6 °F - 48.2 °F 59% 29.96 in 10.0 mi SSW 12.7 mph - N/A   Clear
10:33 AM 62.6 °F - 50.0 °F 63% 29.95 in 10.0 mi South 11.5 mph - N/A   Clear
10:54 AM 64.4 °F - 50.0 °F 59% 29.95 in 10.0 mi SSW 11.5 mph - N/A   Clear
11:13 AM 62.6 °F - 48.2 °F 59% 29.94 in 10.0 mi SSW 8.1 mph - N/A   Clear
11:33 AM 64.4 °F - 50.0 °F 59% 29.94 in 10.0 mi South 11.5 mph - N/A   Clear
11:53 AM 64.4 °F - 50.0 °F 59% 29.94 in 10.0 mi SSW 9.2 mph - N/A   Clear
12:13 PM 64.4 °F - 51.8 °F 64% 29.94 in 10.0 mi SSW 6.9 mph - N/A   Scattered Clouds
12:34 PM 64.4 °F - 51.8 °F 64% 29.94 in 10.0 mi SSW 5.8 mph - N/A   Scattered Clouds
12:53 PM 64.4 °F - 51.8 °F 64% 29.93 in 10.0 mi SSW 10.4 mph - N/A   Scattered Clouds
1:13 PM 64.4 °F - 51.8 °F 64% 29.93 in 10.0 mi SSW 6.9 mph - N/A   Mostly Cloudy
1:34 PM 62.6 °F - 51.8 °F 68% 29.93 in 10.0 mi SW 8.1 mph 17.3 mph N/A Rain Rain
1:53 PM 57.2 °F - 53.6 °F 88% 29.94 in 10.0 mi SW 11.5 mph - 0.02 in Rain Light Rain
2:13 PM 57.2 °F - 55.4 °F 94% 29.94 in 10.0 mi SW 4.6 mph - 0.06 in Rain Rain
2:34 PM 57.2 °F - 55.4 °F 94% 29.94 in 10.0 mi SSW 5.8 mph - 0.10 in Rain Rain
2:53 PM 55.4 °F - 55.4 °F 100% 29.93 in 10.0 mi South 4.6 mph - 0.12 in Rain Light Rain
3:13 PM 55.4 °F - 55.4 °F 100% 29.92 in 7.0 mi South 4.6 mph - 0.04 in Rain Rain
3:34 PM 55.4 °F - 55.4 °F 100% 29.92 in 10.0 mi South 6.9 mph - 0.10 in Rain Rain
3:53 PM 55.4 °F - 53.6 °F 94% 29.92 in 7.0 mi SSE 4.6 mph - 0.17 in Rain Rain
4:13 PM 55.4 °F - 53.6 °F 94% 29.91 in 10.0 mi SSE 6.9 mph - 0.04 in Rain Rain
4:34 PM 55.4 °F - 53.6 °F 94% 29.91 in 7.0 mi SSE 8.1 mph - 0.14 in Rain Rain
4:53 PM 55.4 °F - 53.6 °F 94% 29.91 in 5.0 mi SE 5.8 mph - 0.26 in Rain Heavy Rain
5:13 PM 53.6 °F - 53.6 °F 100% 29.91 in 7.0 mi SSE 5.8 mph - 0.10 in Rain Heavy Rain
5:34 PM 53.6 °F - 53.6 °F 100% 29.91 in 4.0 mi SE 6.9 mph - 0.27 in Rain Heavy Rain
5:53 PM 53.6 °F - 51.8 °F 94% 29.92 in 7.0 mi SSE 6.9 mph - 0.38 in Rain Rain
6:13 PM 53.6 °F - 51.8 °F 94% 29.92 in 3.0 mi Calm Calm - 0.11 in Rain Rain
6:34 PM 53.6 °F - 51.8 °F 94% 29.92 in 5.0 mi SE 3.5 mph - 0.20 in Rain Rain
6:53 PM 53.6 °F - 53.6 °F 100% 29.92 in 7.0 mi East 4.6 mph - 0.25 in Rain Rain
7:13 PM 53.6 °F - 53.6 °F 100% 29.91 in 10.0 mi East 4.6 mph - 0.03 in Rain Light Rain
7:33 PM 53.6 °F - 53.6 °F 100% 29.91 in 7.0 mi East 4.6 mph - 0.05 in Rain Rain
7:53 PM 53.6 °F - 53.6 °F 100% 29.92 in 7.0 mi East 4.6 mph - 0.12 in Rain Rain
8:13 PM 53.6 °F - 53.6 °F 100% 29.92 in 10.0 mi ESE 4.6 mph - 0.04 in Rain Light Rain
8:33 PM 53.6 °F - 53.6 °F 100% 29.90 in 10.0 mi SE 6.9 mph - 0.04 in Rain Rain
8:53 PM 53.6 °F - 51.8 °F 94% 29.90 in 10.0 mi SE 9.2 mph - 0.05 in Rain Light Rain
9:14 PM 53.6 °F - 51.8 °F 94% 29.90 in 10.0 mi SE 5.8 mph - 0.02 in Rain Light Rain
9:33 PM 53.6 °F - 51.8 °F 94% 29.92 in 10.0 mi Calm Calm - 0.03 in   Drizzle
9:53 PM 53.6 °F - 51.8 °F 94% 29.92 in 10.0 mi Calm Calm - 0.03 in   Overcast
10:14 PM 53.6 °F - 51.8 °F 94% 29.91 in 10.0 mi East 3.5 mph - 0.01 in Rain Light Rain
10:33 PM 53.6 °F - 51.8 °F 94% 29.93 in 10.0 mi ENE 3.5 mph - 0.01 in   Drizzle
10:53 PM 53.6 °F - 51.8 °F 94% 29.94 in 10.0 mi Calm Calm - 0.01 in Rain Light Rain
11:13 PM 53.6 °F - 51.8 °F 94% 29.93 in 10.0 mi East 3.5 mph - N/A   Light Drizzle
11:33 PM 53.6 °F - 51.8 °F 94% 29.94 in 10.0 mi Calm Calm - N/A   Overcast
11:53 PM 53.6 °F - 51.8 °F 94% 29.94 in 10.0 mi NNE 3.5 mph - N/A   Overcast